#timestamp,LO_Frequency,Hit,Temp,Hum 
1479463215.0,286046882.2,N,0.0,0.0
1479463215.9,286046882.2,N,0.0,0.0
1479463235.8,286046883.2,N,0.0,0.0
1479463255.6,286046884.2,N,0.0,0.0
1479463275.4,286046884.2,N,0.0,0.0
1479463295.3,286046883.3,N,0.0,0.0
1479463315.1,286046885.5,N,0.0,0.0
1479463335.8,286046883.3,N,0.0,0.0
1479463355.7,286046883.4,N,0.0,0.0
1479463375.5,286046883.1,N,0.0,0.0
1479463395.3,286046885.4,N,0.0,0.0
1479463415.2,286046883.4,N,0.0,0.0
1479463435.0,286046883.6,N,0.0,0.0
1479463435.9,286046883.6,N,0.0,0.0
1479463455.8,286046884.2,N,0.0,0.0
1479463475.6,286046883.1,N,0.0,0.0
1479463495.4,286046884.0,N,0.0,0.0
1479463515.3,286046881.3,N,0.0,0.0
1479463535.1,286046884.3,N,0.0,0.0
1479463555.9,286046885.9,N,0.0,0.0
1479463575.7,286046885.6,N,0.0,0.0
1479463595.5,286046885.1,N,0.0,0.0
1479463615.4,286046884.7,N,0.0,0.0
1479463635.2,286046884.5,N,0.0,0.0
1479463655.0,286046884.8,N,0.0,0.0
1479463655.9,286046884.8,N,0.0,0.0
1479463675.8,286046885.9,N,0.0,0.0
1479463695.6,286046885.9,N,0.0,0.0
1479463715.5,286046885.0,N,0.0,0.0
1479463735.3,286046884.7,N,0.0,0.0
1479463755.1,286046884.7,N,0.0,0.0
1479463775.9,286046884.5,N,0.0,0.0
1479463795.7,286046886.6,N,0.0,0.0
1479463815.5,286046886.7,N,0.0,0.0
1479463835.4,286046886.6,N,0.0,0.0
1479463855.2,286046888.8,N,0.0,0.0
1479463875.1,286046890.7,N,0.0,0.0
1479463876.0,286046890.7,N,0.0,0.0
1479463895.8,286046889.7,N,0.0,0.0
1479463915.6,286046890.9,N,0.0,0.0
1479463935.5,286046891.0,N,0.0,0.0
1479463955.3,286046892.6,N,0.0,0.0
1479463975.1,286046892.6,N,0.0,0.0
1479463995.9,286046892.6,N,0.0,0.0
1479464015.7,286046892.5,N,0.0,0.0
1479464035.6,286046894.8,N,0.0,0.0
1479464055.4,286046894.8,N,0.0,0.0
1479464075.2,286046894.7,N,0.0,0.0
1479464095.1,286046897.0,N,0.0,0.0
1479464096.0,286046897.0,N,0.0,0.0
1479464115.8,286046896.4,N,0.0,0.0
1479464135.7,286046894.1,N,0.0,0.0
1479464155.5,286046894.3,N,0.0,0.0
1479464175.3,286046897.0,N,0.0,0.0
1479464195.2,286046895.9,N,0.0,0.0
1479464215.9,286046896.7,N,0.0,0.0
1479464235.7,286046894.3,N,0.0,0.0
1479464255.6,286046894.8,N,0.0,0.0
1479464275.4,286046896.9,N,0.0,0.0
1479464295.3,286046896.5,N,0.0,0.0
1479464315.1,286046896.1,N,0.0,0.0
1479464316.0,286046896.1,N,0.0,0.0
1479464335.8,286046897.9,N,0.0,0.0
1479464355.7,286046900.2,N,0.0,0.0
1479464375.5,286046900.3,N,0.0,0.0
1479464395.3,286046897.7,N,0.0,0.0
1479464415.2,286046900.3,N,0.0,0.0
1479464435.0,286046898.9,N,0.0,0.0
1479464435.9,286046898.9,N,0.0,0.0
1479464455.8,286046901.2,N,0.0,0.0
1479464475.6,286046900.6,N,0.0,0.0
1479464495.4,286046900.7,N,0.0,0.0
1479464515.3,286046903.2,N,0.0,0.0
1479464535.1,286046900.6,N,0.0,0.0
1479464555.9,286046902.9,N,0.0,0.0
1479464575.7,286046902.5,N,0.0,0.0
1479464595.5,286046904.3,N,0.0,0.0
1479464615.4,286046904.6,N,0.0,0.0
1479464635.2,286046904.3,N,0.0,0.0
1479464655.0,286046904.9,N,0.0,0.0
1479464655.9,286046904.9,N,0.0,0.0
1479464675.8,286046904.6,N,0.0,0.0
1479464695.6,286046903.1,N,0.0,0.0
1479464715.5,286046900.9,N,0.0,0.0
1479464735.3,286046901.0,N,0.0,0.0
1479464755.1,286046900.7,N,0.0,0.0
1479464775.9,286046901.4,N,0.0,0.0
1479464795.7,286046900.9,N,0.0,0.0
1479464815.5,286046905.2,N,0.0,0.0
1479464835.4,286046904.9,N,0.0,0.0
1479464855.2,286046902.2,N,0.0,0.0
1479464875.1,286046905.1,N,0.0,0.0
1479464876.0,286046905.1,N,0.0,0.0
1479464895.8,286046904.5,N,0.0,0.0
1479464915.6,286046903.9,N,0.0,0.0
1479464935.5,286046905.1,N,0.0,0.0
1479464955.3,286046905.2,N,0.0,0.0
1479464975.1,286046902.6,N,0.0,0.0
1479464995.9,286046904.8,N,0.0,0.0
1479465015.7,286046902.3,N,0.0,0.0
1479465035.6,286046902.5,N,0.0,0.0
1479465055.4,286046905.0,N,0.0,0.0
1479465075.2,286046906.2,N,0.0,0.0
1479465095.1,286046906.5,N,0.0,0.0
1479465096.0,286046906.5,N,0.0,0.0
1479465115.8,286046908.4,N,0.0,0.0
1479465135.7,286046907.1,N,0.0,0.0
1479465155.5,286046907.2,N,0.0,0.0
1479465175.3,286046909.1,N,0.0,0.0
1479465195.2,286046906.9,N,0.0,0.0
1479465215.9,286046909.8,N,0.0,0.0
1479465235.7,286046910.4,N,0.0,0.0
1479465255.6,286046914.8,N,0.0,0.0
1479465275.4,286046913.4,N,0.0,0.0
1479465295.3,286046914.6,N,0.0,0.0
1479465315.1,286046912.3,N,0.0,0.0
1479465316.0,286046912.3,N,0.0,0.0
1479465335.8,286046913.2,N,0.0,0.0
1479465355.7,286046910.7,N,0.0,0.0
1479465375.5,286046910.6,N,0.0,0.0
1479465395.3,286046914.3,N,0.0,0.0
1479465415.2,286046912.6,N,0.0,0.0
1479465435.0,286046912.5,N,0.0,0.0
1479465435.9,286046912.5,N,0.0,0.0
1479465455.8,286046912.0,N,0.0,0.0
1479465475.6,286046912.2,N,0.0,0.0
1479465495.4,286046911.9,N,0.0,0.0
1479465515.3,286046914.6,N,0.0,0.0
1479465535.1,286046912.4,N,0.0,0.0
1479465555.9,286046912.2,N,0.0,0.0
1479465575.7,286046913.0,N,0.0,0.0
1479465595.5,286046912.3,N,0.0,0.0
1479465615.4,286046913.9,N,0.0,0.0
1479465635.2,286046916.1,N,0.0,0.0
1479465655.0,286046916.2,N,0.0,0.0
1479465655.9,286046916.2,N,0.0,0.0
1479465675.8,286046915.7,N,0.0,0.0
1479465695.6,286046915.5,N,0.0,0.0
1479465715.5,286046917.1,N,0.0,0.0
1479465735.3,286046917.3,N,0.0,0.0
1479465755.1,286046917.3,N,0.0,0.0
1479465775.9,286046916.9,N,0.0,0.0
1479465795.7,286046917.3,N,0.0,0.0
1479465815.5,286046915.4,N,0.0,0.0
1479465835.4,286046913.5,N,0.0,0.0
1479465855.2,286046914.1,N,0.0,0.0
1479465875.1,286046914.4,N,0.0,0.0
1479465876.0,286046914.4,N,0.0,0.0
1479465895.8,286046912.4,N,0.0,0.0
1479465915.6,286046912.6,N,0.0,0.0
1479465935.5,286046912.5,N,0.0,0.0
1479465955.3,286046914.8,N,0.0,0.0
1479465975.2,286046912.9,N,0.0,0.0
1479465995.9,286046910.4,N,0.0,0.0
1479466015.7,286046908.7,N,0.0,0.0
1479466035.6,286046908.8,N,0.0,0.0
1479466055.4,286046909.2,N,0.0,0.0
1479466075.2,286046908.6,N,0.0,0.0
1479466095.1,286046908.7,N,0.0,0.0
1479466096.0,286046908.7,N,0.0,0.0
1479466115.8,286046908.7,N,0.0,0.0
1479466135.7,286046909.8,N,0.0,0.0
1479466155.5,286046907.5,N,0.0,0.0
1479466175.3,286046905.7,N,0.0,0.0
1479466195.2,286046908.2,N,0.0,0.0
1479466215.9,286046907.7,N,0.0,0.0
1479466235.7,286046908.2,N,0.0,0.0
1479466255.6,286046907.9,N,0.0,0.0
1479466275.4,286046907.5,N,0.0,0.0
1479466295.3,286046908.2,N,0.0,0.0
1479466315.1,286046906.2,N,0.0,0.0
1479466316.0,286046906.2,N,0.0,0.0
1479466335.8,286046905.6,N,0.0,0.0
1479466355.7,286046908.1,N,0.0,0.0
1479466375.5,286046905.7,N,0.0,0.0
1479466395.3,286046908.3,N,0.0,0.0
1479466415.2,286046908.3,N,0.0,0.0
1479466435.0,286046907.8,N,0.0,0.0
1479466435.9,286046907.8,N,0.0,0.0
1479466455.8,286046908.1,N,0.0,0.0
1479466475.6,286046907.8,N,0.0,0.0
1479466495.4,286046908.2,N,0.0,0.0
1479466515.3,286046907.0,N,0.0,0.0
1479466535.1,286046908.1,N,0.0,0.0
1479466555.9,286046907.7,N,0.0,0.0
1479466575.7,286046907.8,N,0.0,0.0
1479466595.5,286046910.0,N,0.0,0.0
1479466615.4,286046907.3,N,0.0,0.0
1479466635.2,286046907.4,N,0.0,0.0
1479466655.0,286046906.9,N,0.0,0.0
1479466655.9,286046906.9,N,0.0,0.0
1479466675.8,286046906.9,N,0.0,0.0
1479466695.6,286046907.4,N,0.0,0.0
1479466715.5,286046907.3,N,0.0,0.0
1479466735.3,286046909.5,N,0.0,0.0
1479466755.1,286046908.5,N,0.0,0.0
1479466775.9,286046909.4,N,0.0,0.0
1479466795.7,286046909.6,N,0.0,0.0
